Location: Trebic
(49.2170°N, 15.8830°E)
Time: 06:55:12
(UTC+02:00)

Transit 4A - Pass Details

Date: 30 July 2019
Orbit: 863 x 981 km, 66.8° (Epoch: 20 August)

Event Time Altitude Azimuth Distance (km) Brightness Sun altitude
Exits shadow 02:49:15 - 265° (W) 3,192 10.4 -18.2°
Reaches altitude 10° 02:50:45 10° 272° (W) 2,735 10.1 -18.1°
Maximum altitude 02:56:07 27° 329° (NNW) 1,786 9.7 -17.7°
Drops below altitude 10° 03:01:29 10° 26° (NNE) 2,730 11.7 -17.2°
Sets 03:04:29 0° 39° (NE) 3,668 12.7 -17.0°
